Simultaneous Nadir Overpasses (SNOs) Predictions

Prediction of SNOs between NOAA-19 and TERRA Satellite Orbit:

Table of predicted SNOs for the next 14.0 days since TLE Epoch: 2/3/2017
Index Date (NOAA-19) Time (NOAA-19) Lat,Lon (NOAA-19) SZA (NOAA-19 ) Date (TERRA) Time (TERRA) Lat,Lon (TERRA) SZA (TERRA ) Distance(km) Time Diff (sec)
1 02/03/2017 19:10:03 74.94, -97.99 91.22 02/03/2017 19:11:13 74.94, -98.08 91.22 2.67 70
2 02/03/2017 20:01:05 -74.90, 69.35 88.82 02/03/2017 20:00:41 -74.91, 69.49 88.82 3.85 24
3 02/06/2017 00:43:59 -74.95, -1.45 89.45 02/06/2017 00:44:57 -74.97, -1.42 89.42 2.41 58
4 02/06/2017 01:34:57 74.88, 166.01 90.49 02/06/2017 01:34:24 74.90, 166.03 90.50 1.99 33
5 02/08/2017 06:17:52 74.96, 95.11 89.87 02/08/2017 06:18:40 74.96, 95.10 89.87 0.37 48
6 02/08/2017 07:08:52 -74.88, -97.40 90.22 02/08/2017 07:08:09 -74.88, -97.45 90.22 1.63 43
7 02/10/2017 11:51:47 -74.98,-168.37 90.83 02/10/2017 11:52:24 -74.99,-168.25 90.82 3.54 37
8 02/10/2017 12:42:46 74.91, -0.91 89.09 02/10/2017 12:41:51 74.91, -0.81 89.09 2.88 55
9 02/12/2017 17:25:40 74.95, -71.68 88.40 02/12/2017 17:26:07 74.96, -71.76 88.41 2.59 27
10 02/12/2017 18:16:40 -74.92, 95.65 91.64 02/12/2017 18:15:36 -74.89, 95.69 91.68 3.33 64
11 02/14/2017 22:59:34 -74.98, 24.79 92.32 02/14/2017 22:59:51 -74.98, 24.87 92.32 2.16 17
12 02/14/2017 23:50:32 74.81,-167.45 87.51 02/14/2017 23:49:19 74.85,-167.83 87.53 11.73 73
